[[{"header":{"parameterUnit":"m.s-1","parameterCategory":1,"la1":30.2991,"la2":30.254,"lo1":-89.0895,"lo2":-89.0444,"dy":0.0017,"dx":0.0017,"nx":28,"ny":28,"refTime":"2023-04-25T21:00:00:Z","depth":0,"parameterNumber":2,"parameterNumberName":"U-component_of_WINDS"},"data":[0,0,0,0,0,0,0,0,0,0,0,0,0,0,0,0,0,0,0,0,0,0,0,0,0,0,0,0,0,0,0,0,0,0,0,0,0,0,0,0,0,0,0,0,0,0,0,0,0,0,0,0,0,0,0,0,0,0,-3.8778,-3.8779,0,-3.8889,-3.8891,-3.8892,-3.8876,-3.8874,-3.8872,-3.8871,-3.8984,-3.8988,-3.8993,0,0,0,0,0,0,0,0,0,0,0,0,0,-3.8552,-3.8556,-3.8778,-3.878,-3.8781,-3.8889,-3.8891,-3.8892,-3.8876,-3.8874,-3.8872,-3.887,-3.8982,-3.8988,-3.8994,0,0,0,0,0,0,0,0,0,0,0,0,0,-3.8656,-3.8558,-3.8778,-3.8786,-3.8788,-3.8889,-3.8891,-3.8893,-3.8877,-3.8874,-3.8871,-3.8869,-3.898,-3.8987,-3.8994,-3.9094,0,0,-3.9016,-3.9019,0,0,0,0,0,0,0,0,-3.865,-3.8664,-3.8783,-3.8786,-3.8788,-3.8866,-3.8853,-3.896,-3.8878,-3.8843,-3.8871,-3.8867,-3.8947,-3.8957,-3.8984,-3.9099,-3.9104,-3.9017,-3.9021,-3.9024,-3.9026,0,0,0,0,0,0,0,-3.8643,-3.8659,-3.8822,-3.8785,-3.8788,-3.8784,-3.8796,-3.8873,-3.8909,-3.8846,-3.8845,-3.8858,-3.8948,-3.8977,-3.8986,-3.9106,-3.9017,-3.9023,-3.9027,-3.903,-3.931,-3.9313,0,0,0,0,0,0,-3.8633,-3.8653,-3.8819,-3.8825,-3.8711,-3.8791,-3.8804,-3.8844,-3.8908,-3.8916,-3.8861,-3.8857,-3.8966,-3.8978,-3.899,-3.9111,-3.9024,-3.9031,-3.9035,-3.9307,-3.9311,-3.9314,0,0,0,0,0,0,-3.8628,-3.8648,-3.8814,-3.8739,-3.876,-3.8798,-3.8843,-3.8847,-3.8877,-3.892,-3.8926,-3.8884,-3.8964,-3.898,-3.9069,-3.9114,-3.9034,-3.904,-3.9303,-3.9308,-3.9312,-3.9353,0,0,0,0,0,0,-3.8622,-3.8647,-3.8685,-3.874,-3.8764,-3.8891,-3.8846,-3.8852,-3.8889,-3.8886,-3.8943,-3.895,-3.8963,-3.9058,-3.9076,-3.9123,-3.9046,-3.9299,-3.9305,-3.9311,-3.9347,-3.9358,-3.9368,0,0,0,0,0,-3.8614,-3.8691,-3.8687,-3.8707,-3.8812,-3.8893,-3.8907,-3.8921,-3.8893,-3.8931,-3.8959,-3.8948,-3.9107,-3.9067,-3.9087,-3.9137,-3.9296,-3.9303,-3.931,-3.9343,-3.9356,-3.9367,0,0,0,0,0,0,-3.8639,-3.8699,-3.8694,-3.8792,-3.8838,-3.889,-3.8939,-3.8935,-3.8989,-3.8984,-3.8999,-3.9012,-3.9102,-3.9129,-3.9083,-3.9237,-3.9198,-3.9209,-3.9216,-3.9229,-3.9239,-3.9229,-3.9052,0,0,0,0,0,-3.8657,-3.8717,-3.8766,-3.8847,-3.8871,-3.8901,-3.8937,-3.8944,-3.8992,-3.9012,-3.9046,-3.9093,-3.9154,-3.9193,-3.9251,-3.9352,-3.9364,-3.9397,-3.9407,-3.9415,-3.9423,-3.9479,-3.9493,-3.9337,-3.9337,-3.9337,0,0,-3.8692,-3.8732,-3.8769,-3.8854,-3.889,-3.8952,-3.8918,-3.8985,-3.9032,-3.9022,-3.9107,-3.9134,-3.9188,-3.9283,-3.9327,-3.9308,-3.947,-3.9424,-3.943,-3.9434,-3.9488,-3.9502,-3.9515,-3.9342,-3.9341,-3.934,0,0,-3.8788,-3.8825,-3.8897,-3.8935,-3.899,-3.9011,-3.9028,-3.9082,-3.91,-3.9186,-3.918,-3.9236,-3.934,-3.9379,-3.9412,-3.9525,-3.9517,-3.9544,-3.9596,-3.9649,-3.9662,-3.9673,-3.9712,-3.9726,-3.9553,-3.9554,-3.9554,0,-3.8825,-3.8919,-3.8934,-3.9003,-3.904,-3.9035,-3.9108,-3.9144,-3.9216,-3.9242,-3.922,-3.9351,-3.9387,-3.9491,-3.9519,-3.9547,-3.9566,-3.9536,-3.9659,-3.967,-3.968,-3.9718,-3.9733,-3.9556,-3.9556,-3.9556,-3.9555,0,-3.8961,-3.9026,-3.9078,-3.9148,-3.9191,-3.9261,-3.9288,-3.933,-3.9334,-3.9357,-3.9445,-3.9488,-3.9555,-3.9581,-3.9585,-3.9686,-3.9673,-3.9655,-3.9615,-3.9698,-3.9733,-3.9748,-3.956,-3.9559,-3.9559,-3.9558,0,0,-3.9074,-3.9153,-3.9171,-3.9203,-3.9265,-3.9316,-3.9387,-3.9453,-3.9488,-3.9539,-3.9598,-3.9688,-3.9672,-3.971,-3.9719,-3.9767,-3.9853,-3.9744,-3.9745,-3.9761,-3.9966,-3.9977,-3.9993,-3.9849,-3.9852,-3.9854,-3.9961,0,-3.9175,-3.9299,-3.9316,-3.9426,-3.9486,-3.9484,-3.9546,-3.9591,-3.9614,-3.9669,-3.9696,-3.9758,-3.9734,-3.9756,-3.9804,-3.9832,-3.9894,-3.9825,-3.9903,-3.9906,-3.9887,-4.0012,-4.0024,-4.0122,-3.9975,-3.9977,-3.9979,0,-3.9308,-3.9363,-3.9479,-3.9534,-3.956,-3.9615,-3.9677,-3.973,-3.9782,-3.9796,-3.9839,-3.9843,-3.9916,-3.9875,-3.9977,-3.993,-3.9963,-3.9982,-3.9987,-3.9992,-3.9946,-4.002,-4.0154,-4.0168,-4.0001,-4.0,-3.9998,0,-3.9377,-3.948,-3.9563,-3.9591,-3.9657,-3.9696,-3.9725,-3.9774,-3.9813,-3.9868,-3.9893,-3.9956,-3.999,-4.0038,-4.0059,-4.0028,-4.0159,-4.012,-4.0172,-4.0171,-4.0197,-4.0195,-4.0337,-4.0222,-4.0222,-4.0222,-4.0222,0,-3.9487,-3.9558,-3.9595,-3.9645,-3.9725,-3.9744,-3.9823,-3.9851,-3.9895,-3.9951,-3.9954,-4.0006,-4.0032,-4.0089,-4.0106,-4.0187,-4.0202,-4.0215,-4.0218,-4.0214,-4.0212,-4.0234,-4.0227,-4.0226,-4.0225,-4.0224,-4.0224,0,-3.9576,-3.9604,-3.9694,-3.975,-3.9766,-3.9822,-3.987,-3.9919,-3.9943,-4.0014,-4.0032,-4.007,-4.0137,-4.0164,-4.0246,-4.0257,-4.035,-4.0349,-4.0332,-4.0333,-4.0382,-4.0377,-4.0542,-4.0564,-4.0437,-4.0438,-4.0439,0,-3.9643,-3.9698,-3.976,-3.9798,-3.9829,-3.989,-3.993,-3.9952,-3.9993,-4.0057,-4.0099,-4.0166,-4.022,-4.0328,-4.0363,-4.0426,-4.0425,-4.0479,-4.0434,-4.0428,-4.0424,-4.042,-4.0425,-4.0486,-4.0487,-4.0489,-4.0489,0,-3.9759,-3.977,-3.9828,-3.989,-3.9938,-3.9988,-4.0037,-4.0068,-4.0098,-4.0145,-4.0213,-4.0256,-4.0341,-4.0407,-4.0472,-4.0503,-4.0501,-4.0504,-4.0519,-4.0513,-4.0501,-4.0507,-4.0353,-4.0499,-4.0498,-4.0497,-4.0497,-4.0496,-3.9838,-3.9886,-3.9938,-4.0002,-4.0041,-4.0087,-4.0136,-4.0167,-4.0225,-4.0295,-4.0305,-4.0379,-4.043,-4.0518,-4.0552,-4.061,-4.0595,-4.0618,-4.0623,-4.0627,-4.063,-4.0494,-4.0622,-4.0622,-4.0621,-4.0621,-4.0621,0,-3.9953,-3.9986,-4.0045,-4.0114,-4.0164,-4.0159,-4.0214,-4.0256,-4.0321,-4.0369,-4.0423,-4.0503,-4.0568,-4.0609,-4.0674,-4.0713,-4.0714,-4.0729,-4.0726,-4.0733,-4.064,-4.0619,-4.0728,-4.0727,-4.0727,-4.0727,-4.0727,-4.0727,-4.0018,-4.0099,-4.0117,-4.0218,-4.0251,-4.0323,-4.0355,-4.0397,-4.0436,-4.0524,-4.0579,-4.0605,-4.0651,-4.072,-4.0779,-4.079,-4.0813,-4.0829,-4.0838,-4.075,-4.0739,-4.0728,-4.0709,-4.0835,-4.0835,-4.0926,-4.0927,-4.0928]},{"header":{"parameterUnit":"m.s-1","parameterCategory":1,"la1":30.2991,"la2":30.254,"lo1":-89.0895,"lo2":-89.0444,"dy":0.0017,"dx":0.0017,"nx":28,"ny":28,"refTime":"2023-04-25T21:00:00:Z","depth":0,"parameterNumber":3,"parameterNumberName":"V-component_of_WINDS"},"data":[0,0,0,0,0,0,0,0,0,0,0,0,0,0,0,0,0,0,0,0,0,0,0,0,0,0,0,0,0,0,0,0,0,0,0,0,0,0,0,0,0,0,0,0,0,0,0,0,0,0,0,0,0,0,0,0,0,0,3.2817,3.2817,0,3.2883,3.2884,3.2884,3.2878,3.2877,3.2876,3.2875,3.2939,3.2941,3.2944,0,0,0,0,0,0,0,0,0,0,0,0,0,3.2681,3.2684,3.2817,3.2817,3.2818,3.2883,3.2884,3.2884,3.2878,3.2877,3.2875,3.2874,3.2938,3.2941,3.2944,0,0,0,0,0,0,0,0,0,0,0,0,0,3.2743,3.2685,3.2816,3.2823,3.2824,3.2883,3.2884,3.2885,3.2878,3.2877,3.2875,3.2874,3.2937,3.2941,3.2944,3.3,0,0,3.2957,3.2958,0,0,0,0,0,0,0,0,3.274,3.2748,3.2821,3.2823,3.2824,3.2871,3.2859,3.2923,3.2879,3.2858,3.2875,3.2873,3.2917,3.2922,3.2938,3.3003,3.3005,3.2957,3.2959,3.2961,3.2962,0,0,0,0,0,0,0,3.2735,3.2745,3.2843,3.2822,3.2824,3.2821,3.2828,3.2871,3.2895,3.2859,3.2859,3.2867,3.2917,3.2934,3.294,3.3006,3.2957,3.296,3.2963,3.2964,3.312,3.3122,0,0,0,0,0,0,3.273,3.2742,3.2841,3.2845,3.2777,3.2825,3.2833,3.2857,3.2894,3.2899,3.2868,3.2867,3.2928,3.2935,3.2942,3.3009,3.2961,3.2965,3.2967,3.3119,3.3121,3.3123,0,0,0,0,0,0,3.2727,3.2739,3.2838,3.2793,3.2806,3.2829,3.2856,3.2859,3.2876,3.2901,3.2905,3.2881,3.2927,3.2936,3.2986,3.3012,3.2967,3.297,3.3116,3.3119,3.3122,3.3145,0,0,0,0,0,0,3.2723,3.2738,3.276,3.2794,3.2808,3.2882,3.2858,3.2862,3.2883,3.2882,3.2915,3.2919,3.2927,3.298,3.299,3.3016,3.2973,3.3114,3.3118,3.3121,3.3142,3.3148,3.3153,0,0,0,0,0,3.2718,3.2762,3.2761,3.2773,3.2836,3.2883,3.2891,3.2901,3.2886,3.2907,3.2924,3.2918,3.3007,3.2985,3.2996,3.3024,3.3113,3.3117,3.3121,3.3139,3.3147,3.3153,0,0,0,0,0,0,3.2729,3.2767,3.2766,3.2822,3.285,3.2882,3.291,3.2908,3.294,3.2937,3.2946,3.2954,3.3004,3.3019,3.2993,3.308,3.3058,3.3064,3.3068,3.3076,3.3081,3.3076,3.2977,0,0,0,0,0,3.2738,3.2775,3.2805,3.2852,3.2866,3.2886,3.2907,3.2912,3.294,3.2952,3.2971,3.2998,3.3033,3.3055,3.3088,3.3144,3.3151,3.3169,3.3174,3.3179,3.3184,3.3216,3.3224,3.3136,3.3135,3.3135,0,0,3.2757,3.2782,3.2804,3.2855,3.2877,3.2914,3.2896,3.2935,3.2962,3.2957,3.3006,3.3021,3.3052,3.3106,3.313,3.3119,3.3211,3.3184,3.3187,3.319,3.3221,3.3229,3.3237,3.3138,3.3138,3.3137,0,0,3.281,3.2833,3.2875,3.2898,3.2933,3.2945,3.2956,3.2989,3.2999,3.3049,3.3046,3.3078,3.3137,3.3159,3.3178,3.3241,3.3237,3.3251,3.3281,3.3311,3.3318,3.3325,3.3348,3.3356,3.3257,3.3257,3.3257,0,3.2829,3.2886,3.2897,3.2937,3.296,3.2959,3.3001,3.3022,3.3065,3.308,3.3068,3.3143,3.3163,3.3222,3.3238,3.3253,3.3265,3.3248,3.3317,3.3323,3.3329,3.3351,3.336,3.3258,3.3258,3.3258,3.3258,0,3.2907,3.2946,3.2976,3.3019,3.3045,3.3086,3.3103,3.3127,3.3131,3.3144,3.3195,3.322,3.3258,3.3272,3.3275,3.3332,3.3325,3.3315,3.3293,3.3339,3.336,3.3368,3.3261,3.326,3.326,3.3259,0,0,3.2968,3.3018,3.3029,3.3049,3.3087,3.3117,3.3158,3.3197,3.3218,3.3248,3.3282,3.3333,3.3325,3.3346,3.3351,3.3378,3.3428,3.3365,3.3366,3.3376,3.3493,3.35,3.351,3.3425,3.3427,3.3428,3.349,0,3.3025,3.31,3.3112,3.3176,3.3213,3.3213,3.3249,3.3276,3.329,3.3322,3.3338,3.3374,3.3359,3.3373,3.3399,3.3416,3.3451,3.3412,3.3457,3.3458,3.3449,3.352,3.3528,3.3585,3.3498,3.35,3.3501,0,3.3102,3.3136,3.3205,3.3239,3.3255,3.3287,3.3325,3.3356,3.3386,3.3395,3.342,3.3422,3.3464,3.3441,3.3499,3.3472,3.3491,3.3502,3.3504,3.3509,3.3482,3.3527,3.3604,3.3612,3.3513,3.3512,3.3511,0,3.314,3.3203,3.3252,3.3269,3.3311,3.3333,3.3351,3.3381,3.3404,3.3436,3.3451,3.3487,3.3507,3.3535,3.3547,3.3528,3.3604,3.3581,3.3612,3.3612,3.3627,3.3626,3.3709,3.364,3.364,3.3639,3.3639,0,3.3203,3.3245,3.327,3.3301,3.3348,3.3361,3.3407,3.3425,3.3451,3.3484,3.3486,3.3517,3.3531,3.3564,3.3574,3.3621,3.3629,3.3637,3.3639,3.3637,3.3636,3.365,3.3646,3.3642,3.3641,3.3641,3.364,0,3.3254,3.3272,3.3326,3.3362,3.3372,3.3405,3.3435,3.3464,3.3479,3.3521,3.3532,3.3554,3.3593,3.3608,3.3655,3.3662,3.3716,3.3715,3.3706,3.3707,3.3737,3.3734,3.3831,3.3844,3.3766,3.3767,3.3768,0,3.3293,3.3326,3.3365,3.3389,3.3408,3.3445,3.3469,3.3483,3.3508,3.3546,3.3571,3.361,3.3643,3.3705,3.3725,3.3761,3.3761,3.3792,3.3766,3.3764,3.3762,3.376,3.3763,3.3797,3.3798,3.3799,3.3799,0,3.336,3.3368,3.3404,3.3443,3.3472,3.3503,3.3533,3.3552,3.357,3.3598,3.3639,3.3664,3.3714,3.3753,3.379,3.3808,3.3807,3.3807,3.3816,3.3815,3.3809,3.3813,3.372,3.3805,3.3804,3.3804,3.3804,3.3803,3.3407,3.3436,3.3469,3.3509,3.3533,3.3562,3.3592,3.3611,3.3646,3.3688,3.3694,3.3738,3.3768,3.3819,3.3838,3.3872,3.3863,3.3876,3.388,3.3883,3.3885,3.3803,3.3879,3.3878,3.3878,3.3878,3.3878,0,3.3475,3.3496,3.3533,3.3576,3.3607,3.3605,3.3638,3.3664,3.3703,3.3732,3.3765,3.3812,3.385,3.3874,3.3912,3.3935,3.3935,3.3945,3.3943,3.3947,3.389,3.3879,3.3944,3.3944,3.3944,3.3944,3.3944,3.3944,3.3514,3.3564,3.3576,3.3639,3.366,3.3704,3.3723,3.3749,3.3773,3.3826,3.3859,3.3874,3.3901,3.3942,3.3976,3.3982,3.3996,3.4006,3.4011,3.3958,3.3951,3.3945,3.3934,3.4009,3.4009,3.4066,3.4066,3.4066]}]]